Regional Weather Roundup
Issued by NWS Pendleton, OR

Home | Current Version | Previous Version | Text Only | Print | Product List | Glossary On
Versions: 1 2 3 4 5 6 7 8 9 10 11 12 13 14 15 16 17 18 19 20 21 22 23 24 25 26 27 28 29 30 31 32 33 34 35 36 37 38 39 40 41 42 43 44 45 46 47 48 49 50
000
ASUS46 KPDT 020125
RWRPDT
PENDLETON REGIONAL WEATHER ROUNDUP
NATIONAL WEATHER SERVICE PENDLETON OREGON
600 PM PDT MON JUN 1 2015

NOTE: FAIR INDICATES FEW OR NO CLOUDS BELOW 12,000 FEET WITH NO
SIGNIFICANT WEATHER AND/OR OBSTRUCTIONS TO VISIBILITY.

# INDICATES UNOFFICIAL STATION AND DATA

WAZ520-020210-
EAST SLOPES OF WASHINGTON CASCADES

CITY            SKY/WX      TMP DP  RH  WIND    PRES   REMARKS
#BULLFROG 2SW   N/A         54  48  80  NW3     27.48S
#BUMPING DAM    N/A         54  N/A N/A S5      N/A
#CLE ELUM HS    N/A         58  49  72  W7      29.80S
#CLE ELUM LAKE  N/A         58  48  69  CALM    29.72R
#CLIFFDEL 2NW   N/A         53  51  93  CALM    N/A
#GLENWOOD       N/A         65  51  60  S6      29.79R
#NELSON         N/A         58  51  77  W1      29.78S
#NELSON 3SW     N/A         55  51  86  CALM    29.94S
#NILE           N/A         60  50  69  W3      29.04S
#RONALD 2NW     N/A         62  43  50  NW2     29.75S
#TEANAWAY 4NE   N/A         60  52  75  W2      N/A
#TROUT LAKE 1NE N/A         59  50  72  NW9     29.83R
$$

WAZ521-020210-
SIMCOE HIGHLANDS

CITY            SKY/WX      TMP DP  RH  WIND    PRES   REMARKS
#BICKLETON HS   N/A         66  35  32  W12     N/A
#CENTERVILLE 4W N/A         67  49  52  NW22    29.59S
#CENTERVILLE 1SWN/A         66  49  54  W22     29.77R
#GOLDENDALE     N/A         70  49  47  W15     N/A
#GOODNOE HILLS  N/A         72  48  43  W24G32  N/A
#LYLE 6NE       N/A         64  51  63  N13G24  29.79R
$$

WAZ026-020210-
KITTITAS VALLEY

CITY            SKY/WX      TMP DP  RH  WIND    PRES   REMARKS
ELLENSBURG AP   PTCLDY      68  49  51  NW26G40 29.78R
#ELLENSBURG CWU N/A         66  49  54  NW25    29.66R
#ELLENSBURG 3NE N/A         64  51  63  N13G33  29.79R
#ELLENSBURG 1E  N/A         65  46  50  NW5     N/A
#KITTITAS 4N    N/A         67  50  54  N16     28.08R
#KITTITAS 3S    N/A         67  51  56  N14     29.68R
#THORP 6N       N/A         57  49  75  NW12G26 29.74R
$$

WAZ027-020210-
YAKIMA VALLEY

CITY            SKY/WX      TMP DP  RH  WIND    PRES   REMARKS
SUNNYSIDE AP    MOCLDY      73  52  48  W13     29.73S
YAKIMA AIRPORT  MOCLDY      77  48  36  NW17G29 29.75R
#DONALD 2NE     N/A         76  37  24  W1      28.59S
#GRANDVIEW      N/A         79  46  31  W3      29.70S
#MABTON         N/A         80  50  35  W9      29.70F
#NACHES 2SW     N/A         66  52  61  W15G28  29.77F
#OUTLOOK DOT    N/A         N/A N/A N/A W15     N/A
#SELAH 8E       N/A         72  49  44  W14G24  N/A
#TERRACE HTS    N/A         72  51  48  N8      29.65S
#TOPPENISH      N/A         77  48  36  W10     29.61S
#WAPATO 4NE     N/A         76  37  24  W1      28.59S
#WEST VALLEY    N/A         72  48  43  NW12G24 29.67S
#W YAKIMA       N/A         70  52  53  NW8     29.69R
#WHITE SWAN 5E  N/A         76  52  43  W17G28  29.69F
#WILEY CITY 3W  N/A         76  44  32  CALM    29.71F
$$

WAZ028-020210-
LOWER COLUMBIA BASIN...WASHINGTON

CITY            SKY/WX      TMP DP  RH  WIND    PRES   REMARKS
HANFORD         CLOUDY      78  49  36  W25G36  29.68R
PASCO           MOCLDY      79  48  34  SW12    29.72R BLWG DUST
RICHLAND AWOS   MOCLDY      82  46  28  SW16G24 29.70R
#BASIN CITY 5SW N/A         65  58  78  W5      29.71R
#BENTON CITY    N/A         77  51  40  W5      29.59R
#CONNELL 5N     N/A         78  52  40  S9G26   29.66S
#CONNELL 5NW    N/A         75  54  48  S12     29.64R
#ELTOPIA        N/A         78  53  42  SW2     29.66R
#ELTOPIA 6NW    N/A         71  57  61  W22G33  28.70R
#KAHLOTUS       N/A         73  49  43  W22G35  29.70R
#KENNEWICK      N/A         54  48  80  NW3     27.48S
#KENNEWICK 3S   N/A         74  51  44  N5      29.69R
#PATERSON       N/A         72  54  53  SW10    29.70F
#PROSSER        N/A         78  45  31  N3      29.68R
#SAGEMOOR 2W    N/A         75  54  48  S3      29.54R
#TOUCHET 2S     N/A         67  54  63  SW3     29.72R
#WEST PASCO     N/A         79  53  41  W3      29.67R
$$

WAZ029-020210-
FOOTHILLS OF THE BLUES...WASHINGTON

CITY            SKY/WX      TMP DP  RH  WIND    PRES   REMARKS
WALLA WALLA AP  CLOUDY      71  51  49  S12     29.79S HAZE
#DAYTON SCHOOL  N/A         67  50  54  S7      29.83S
#LOWDEN 2SE     N/A         71  54  55  W6      29.73R
#PLEASANT VIEW 1N/A         69  52  55  SE10    29.74R
#PRESCOTT       N/A         71  53  53  S2      29.72S
#SUDBURY        N/A         70  N/A N/A CALM    N/A
#WHITMAN COLLEGEN/A         70  54  57  S6      29.80R
#WAITSBURG 5S   N/A         65  54  68  SE6     29.84R
#WAITSBURG 8N   N/A         67  28  23  S7      29.62S
#WALLA WALLA U  N/A         72  54  53  CALM    29.74S
#WHITMAN MISSIONN/A         70  56  61  CALM    29.76S
$$

WAZ030-020210-
BLUE MOUNTAINS...WASHINGTON

CITY            SKY/WX      TMP DP  RH  WIND    PRES   REMARKS
#DIXIE 5SE      N/A         61  47  60  S12     29.80R
$$

ORZ009-041-WAZ024-020210-
COLUMBIA RIVER GORGE

CITY            SKY/WX      TMP DP  RH  WIND    PRES   REMARKS
HOOD RIVER AP   MOCLDY      63  52  67  W16G24  29.89S
THE DALLES AP   PTCLDY      70  50  49  N25G33  29.85R
#ARLINGTON AIRPON/A         73  48  41  W26     29.81S
#ARLINGTON HS   N/A         76  47  36  N13     29.66R
#MOSIER 1S      N/A         64  43  46  W9      29.88R
#MURDOCK        N/A         68  55  63  NW25G35 29.85R

$$

ORZ510-020210-
NORTH CENTRAL OREGON

CITY            SKY/WX      TMP DP  RH  WIND    PRES   REMARKS
#CHENOWITH 1W   N/A         60  49  67  W32     N/A
#DUFUR 9E       N/A         60  50  69  W17G26  29.85R
#GRASS VALLEY 1SN/A         66  50  56  NW14    29.82S
#MAUPIN SCHOOL  N/A         72  52  49  W10     29.85R
#MORO SCHOOL    N/A         64  55  73  NW16G24 29.87S
#SHANIKO 4NW    N/A         60  48  64  NW10    29.90S
#TYGH VALLEY 2NEN/A         72  50  46  W10     29.79R
#WAPANITIA AIRPON/A         68  49  51  NW10    29.82R
#WASCO AIRPORT  N/A         70  46  42  NW13    N/A
#WASCO 5NE      N/A         70  50  49  CALM    29.78R
$$

ORZ511-020210-
CENTRAL OREGON

CITY            SKY/WX      TMP DP  RH  WIND    PRES   REMARKS
BEND AIRPORT    LGT RAIN    54  50  86  S8      29.95R
MADRAS AIRPORT  PTCLDY      66  45  47  SW13    29.91R
PRINEVILLE AP   LGT RAIN    55  52  90  W10     29.94R
REDMOND AIRPORT LGT RAIN    56  53  90  SW3     29.94R FOG
#BEND 1SW       N/A         54  52  93  CALM    N/A
#BEND-AWBREY    N/A         54  52  93  SW7     29.81R
#BEND-KIM LN    N/A         53  51  93  S2      29.92R
#CROOKED RVR RANN/A         59  50  72  NW5     29.83R
#LAKE BILLY CHINN/A         62  20  20  SW12    29.98R
#POWELL BUTTE 3EN/A         63  50  62  NW6     N/A
#POWELL BUTTE   N/A         58  50  75  SW5     29.59R
#PRINEVILLE 3N  N/A         58  52  80  SW2     29.79R
#WARM SPRINGS   N/A         70  48  46  SE5     29.84R

$$


ORZ509-020210-
EAST SLOPES OF OREGON CASCADES

CITY            SKY/WX      TMP DP  RH  WIND    PRES   REMARKS
#CAMP SHERMAN   N/A         61  45  56  CALM    29.85R
#LA PINE 4NW    N/A         51  47  86  CALM    29.88R
#SISTERS AIRPOR N/A         59  52  78  N5      30.17S
#SISTERS ODOT   N/A         59  N/A N/A S12     N/A
#SISTERS 1NW    N/A         59  44  57  W6      N/A
#SISTERS 3N     N/A         58  44  60  SW3     29.95R
#SUNRIVER       N/A         52  50  93  CALM    29.73R
#TUMALO 3W      N/A         54  50  86  SE3     29.69R

$$

ORZ044-020210-
LOWER COLUMBIA BASIN...OREGON

CITY            SKY/WX      TMP DP  RH  WIND    PRES   REMARKS
HERMISTON       MOCLDY      73  50  44  SW14    29.78R
#BOARDMAN SCHOOLN/A         77  49  37  S13     29.75F
#ECHO 8SW       N/A         74  51  44  W2      29.79R
#IONE SCHOOL    N/A         73  47  40  W18G31  29.76F
#IRRIGON 4NW    N/A         73  51  46  S15G24  N/A
#UMATILLA SCHOOLN/A         73  58  59  CALM    29.80R
#UMATILLA       N/A         73  51  46  S10     29.67S
$$

ORZ507-020210-
NORTHERN FOOTHILLS OF THE BLUES

CITY            SKY/WX      TMP DP  RH  WIND    PRES   REMARKS
PENDLETON AIRPT CLOUDY      65  53  65  SW10    29.82S
#ADAMS 3WNW     N/A         63  55  75  S2      29.76R
#ATHENA         N/A         63  56  78  CALM    29.78S
#CAYUSE         N/A         64  56  75  E1      29.77R
#HELIX SCHOOL   N/A         62  53  72  W1      29.76S
#HELIX 3N       N/A         62  52  70  SW12    29.81S
#HELIX 6SW      N/A         64  55  73  SW3     29.82R
#HOLDMAN 5SE    N/A         69  53  57  CALM    29.83R
#HOLDMAN 6E     N/A         64  52  65  N8      29.57R
#M-F FERNDALE   N/A         70  53  55  CALM    29.78F
#M-F GROVE ELEM N/A         68  50  53  CALM    29.78F
#M-FREEWATER 5SEN/A         67  53  61  CALM    29.81F
#PENDLETON DNTN N/A         68  47  47  SW1     29.81S
#PDT AQUATIC CTRN/A         68  47  47  W3      29.83S
#PDT SUNRIDGE   N/A         67  54  63  CALM    29.83S
#PENDLETON 7NW  N/A         68  55  63  CALM    32.43R
#PILOT ROCK     N/A         65  54  68  CALM    29.86F
#TUTUILLA       N/A         64  58  81  CALM    29.79S
#UMAPINE 2E     N/A         70  54  57  S2      29.75S
#WESTON SCHOOL  N/A         63  50  62  NW6     29.79F

$$

ORZ508-020210-
SOUTHERN FOOTHILLS OF THE BLUES

CITY            SKY/WX      TMP DP  RH  WIND    PRES   REMARKS
#AJAX           N/A         67  45  45  W14     29.80S
#CONDON 5W      N/A         63  48  58  NW15    29.85S
#FOSSIL SCHOOL  N/A         66  50  56  NW7     29.84R
#HEPPNER EOC    N/A         71  49  46  W7      29.69R
#HEPPNER 4NE    N/A         66  47  50  NW10    29.74S
#LEXINGTON 2SE  N/A         72  49  44  W12     29.78S
#RUGGS 5NE      N/A         68  46  45  W9      30.01F
#RUGGS 2SW      N/A         68  48  49  NW8     29.76S

$$

ORZ502-503-020210-
BLUE MOUNTAINS

CITY            SKY/WX      TMP DP  RH  WIND    PRES   REMARKS
MEACHAM         CLOUDY      56  52  86  CALM    29.89F
#HEPPNER 15SE   N/A         58  48  69  W7      29.80R
#LONG CREEK HS  N/A         62  48  60  CALM    29.83S
#PIKES PEAK     N/A         59  46  62  S15     27.99S
#TOLLGATE       N/A         50  47  89  CALM    29.88R
#TROY SCHOOL    N/A         60  57  90  N2      29.61F
#UKIAH          N/A         61  58  90  CALM    29.79S
#WESTON 4E      N/A         59  50  72  CALM    29.70F
$$

ORZ505-020210-
JOHN DAY BASIN

CITY            SKY/WX      TMP DP  RH  WIND    PRES   REMARKS
JOHN DAY        THUNDER     64  51  63  W15G26  29.87R
#JOHN DAY KJDY  N/A         71  50  47  NW3     29.76R
#DAYVILLE SCHOOLN/A         64  54  70  W7      29.84R
#MONUMENT HS    N/A         70  49  47  W7      29.84R
#MT. VERNON 5SE N/A         65  46  50  SW3     29.82R
$$

ORZ506-020210-
OCHOCO AND JOHN DAY HIGHLANDS

CITY            SKY/WX      TMP DP  RH  WIND    PRES   REMARKS
#PAULINA SCHOOL N/A         67  45  45  W7      29.88R
#PINE MTN OBS   N/A         45  43  93  CALM    N/A
#PRAIRIE CITY   N/A         66  53  63  N2      29.71R
#SENECA         N/A         60  N/A N/A W5      N/A
#SENECA 9NW     N/A         64  44  48  CALM    29.69R
$$

ORZ049-020210-
GRANDE RONDE VALLEY

CITY            SKY/WX      TMP DP  RH  WIND    PRES   REMARKS
LA GRANDE       THUNDER     63  46  54  NW12G25 29.85R
#ELGIN 3N       N/A         60  51  72  CALM    29.83R
#ELGIN 1E       N/A         61  54  78  CALM    N/A
#IMBLER SCHOOL  N/A         60  53  78  NE2     29.81S
#ISLAND CITY 4N N/A         58  56  93  CALM    29.93S
#LA GRANDE ELEM N/A         61  53  75  SW5     29.89R
#UNION 1S       N/A         64  52  65  NW3     29.66R
$$

ORZ050-020210-
WALLOWA COUNTY

CITY            SKY/WX      TMP DP  RH  WIND    PRES   REMARKS
#ENTERPRISE HS  N/A         60  50  69  N5      29.89R
#IMNAHA SCHOOL  N/A         68  49  51  N2      29.80R
#IMNAHA 10S     N/A         66  47  50  NE6     29.83R
#JOSEPH 3N      N/A         57  46  67  SW3     29.92R
#JOSEPH 3W      N/A         56  50  80  CALM    29.76R
#LOSTINE        N/A         59  51  75  CALM    29.53R
#MT HOWARD 8000 N/A         44  41  89  VRB3    30.04F
#PROMISE 1S     N/A         54  51  90  NE1     29.89F
#WALLOWA SCHOOL N/A         60  52  75  W1      30.60F



$$



USA.gov is the U.S. government's official web portal to all federal, state and local government web resources and services.